Regional Weather Roundup
Issued by NWS

Home | Current Version | Previous Version | Text Only | Print | Product List | Glossary On
Versions: 1 2 3 4 5 6 7 8 9 10 11 12 13 14 15 16 17 18 19 20 21 22 23 24 25 26 27 28 29 30 31 32 33 34 35 36 37 38 39 40 41 42 43 44 45 46 47 48 49 50
000
ASUS43 KMPX 251810
RWRMN
WEATHER ROUNDUP FOR MINNESOTA
NATIONAL WEATHER SERVICE TWIN CITIES/CHANHASSEN MN
1200 PM CST SUN JAN 25 2015


NOTE: "FAIR" INDICATES FEW OR NO CLOUDS BELOW 12,000 FEET WITH NO
SIGNIFICANT WEATHER AND/OR OBSTRUCTIONS TO VISIBILITY. N/A MEANS
CURRENT SKY AND/OR WEATHER CONDITIONS ARE NOT AVAILABLE.

MNZ060>063-068>070-251900-
   Twin Cities Metro

CITY           SKY/WX    TMP DP  RH WIND       PRES   REMARKS
TWIN CITIES    CLOUDY    23  12  62 NE8       30.03F WCI  14
6HR MIN TEMP:  20; 6HR MAX TEMP:  25;

ST PAUL        CLOUDY    22  11  62 E9        30.05F WCI  12
CRYSTAL        CLOUDY    24  13  62 NE10      30.02F WCI  14
BLAINE         MOSUNNY   23  12  63 NE10      30.03F WCI  12
LAKEVILLE      CLOUDY    19  16  86 NE5       30.02F WCI  13
EDEN PRAIRIE   CLOUDY    23  13  65 E9        30.01F WCI  13
6HR MIN TEMP:  21; 6HR MAX TEMP:  26;

SOUTH ST PAUL  CLOUDY    22  13  66 NE5       30.04S WCI  16
LAKE ELMO      CLOUDY    23  14  68 E7        30.04F WCI  15
$$
MNZ001>005-007-008-013>017-022>024-027-028-251900-
   Northwest Minnesota

CITY           SKY/WX    TMP DP  RH WIND       PRES   REMARKS
BEMIDJI        CLOUDY    21  13  71 SE5       30.00F WCI  15
HALLOCK        SUNNY     16   9  73 S6        30.06S WCI   7
ROSEAU         CLOUDY    12   5  73 CALM      30.03F
WARROAD        CLOUDY    12   3  67 CALM      30.04F
THIEF RVR FALL CLOUDY    14   7  73 CALM      30.03S
CROOKSTON      SUNNY     19  10  68 CALM      30.05S
FOSSTON        MOSUNNY   25  16  68 CALM      30.01F
DETROIT LAKES  SUNNY     27  19  74 S5        30.00F WCI  21
MOORHEAD       SUNNY     21  18  86 NW3       30.05S
PARK RAPIDS    CLOUDY    25  17  72 SE5       30.00R WCI  19
MAHNOMEN       FAIR      22  14  72 CALM      30.00F
$$
MNZ006-009>011-018-025>026-251900-
   North Central Minnesota

CITY           SKY/WX    TMP DP  RH WIND       PRES   REMARKS
BAUDETTE       PTSUNNY    9   1  70 E6        30.02F WCI  -1
FLAG ISLAND    CLOUDY     9   1  72 SE7       30.03F WCI  -3
INTL FALLS     CLOUDY     8  -1  66 E5        30.05F WCI   0
6HR MIN TEMP:   2; 6HR MAX TEMP:   8;

WASKISH        CLOUDY    18   7  62 CALM      30.03R
BIG FORK       CLOUDY    19  10  68 S3        30.02F
LONGVILLE      CLOUDY    23  14  68 SE3       30.02S
GRAND RAPIDS   CLOUDY    19  12  73 SE5       30.02S WCI  13
CRANE LAKE     PTSUNNY    9   0  66 CALM      30.09F
ORR            CLOUDY    14   3  62 CALM      30.02S
COOK           CLOUDY    14   5  67 CALM      30.04F
WALKER         CLOUDY    21  14  72 E3        30.01S
$$
MNZ012-019>021-037-251900-
   Northeast Minnesota

CITY           SKY/WX    TMP DP  RH WIND       PRES   REMARKS
DULUTH         LGT SNOW  20  13  74 E14       30.01F WCI   7
6HR MIN TEMP:  17; 6HR MAX TEMP:  20; 6HR PCP: TRACE;

ELY            PTSUNNY   12   5  73 E3        30.04F
HIBBING        CLOUDY    20  11  68 SE7       30.03F WCI  11
EVELETH        CLOUDY    19  12  73 SE7       30.03F WCI  10
DULUTH HARBOR  FLURRIES  25  18  74 E17       30.08F WCI  11
TWO HARBORS    FLURRIES  21  14  73 E12       30.03F WCI   9
SILVER BAY     LGT SNOW  18  10  73 NE6       30.06S WCI   9
GRAND MARAIS     N/A     13   5  70 NE7       30.15F WCI   3
G MARAIS ARPRT PTSUNNY    9 -11  40 E3        30.03S
$$
MNZ029>031-032-039>041-046>048-054>057-064-251900-
   West Central Minnesota

CITY           SKY/WX    TMP DP  RH WIND       PRES   REMARKS
FERGUS FALLS   MOSUNNY   25  19  80 NW5       30.05F WCI  19
WHEATON        SUNNY     21  18  86 NW7       30.06F WCI  13
MORRIS         PTSUNNY   27  23  86 NW6       30.02F WCI  20
ALEXANDRIA     CLOUDY    25  18  74 E3        30.01S
ELBOW LAKE     CLOUDY    25  22  86 NW3       30.01F
WADENA         CLOUDY    25  18  74 SE3       30.01S
GLENWOOD       CLOUDY    25  19  80 E3        30.02S
APPLETON       CLOUDY    28  25  86 N7        30.04S WCI  21
BENSON         CLOUDY    28  21  74 E3        30.03S
ORTONVILLE     PTSUNNY   27  19  74 N6        30.04S WCI  20
MADISON        CLOUDY    30  27  86 N8        30.04S WCI  23
WILLMAR        CLOUDY    27  19  74 NE6       30.04S WCI  20
$$
MNZ033>034-036-042>043-049>051-058-059-251900-
   Central Minnesota

CITY           SKY/WX    TMP DP  RH WIND       PRES   REMARKS
ST CLOUD       MOSUNNY   24  14  65 CALM      30.03S
6HR MIN TEMP:  20; 6HR MAX TEMP:  24;

SAUK CENTRE    CLOUDY    23  17  77 CALM      30.03S
PAYNESVILLE    SUNNY     21  16  79 NW3       30.03S
AITKIN         MIX PCPN  25  16  68 SE5       30.02S WCI  19
PINE RIVER     CLOUDY    21  16  79 SE5       30.05S WCI  15
BRAINERD       PTSUNNY   22  13  68 CALM      30.03S
STAPLES        CLOUDY    23  14  68 SE3       30.02R
LONG PRAIRIE   CLOUDY    23  18  80 CALM      30.02S
LITTLE FALLS   SUNNY     25  14  63 E5        30.04S WCI  19
LITCHFIELD     SUNNY     25  19  80 NE6       30.03S WCI  18
BUFFALO        MOSUNNY   23  15  70 NE8       30.04S WCI  14
MAPLE LAKE     MOSUNNY   25  17  73 NE9       30.04R WCI  15
$$
MNZ037-044-045-052-053-251900-
   East Central Minnesota

CITY           SKY/WX    TMP DP  RH WIND       PRES   REMARKS
PRINCETON      CLOUDY    25  16  68 NE5       30.04R WCI  19
MORA           CLOUDY    21  12  68 E5        30.05F WCI  15
CAMBRIDGE      CLOUDY    25  12  58 N5        30.02F WCI  19
RUSH CITY      PTSUNNY   23  14  67 CALM      30.04F
MOOSE LAKE     CLOUDY    27  12  54 N5        30.02R WCI  21
HINCKLEY       CLOUDY    27  16  63 SE5       30.04S WCI  21
CLOQUET        FLURRIES  21  14  73 E10       30.03R WCI  10
MCGREGOR       CLOUDY    23  18  80 E5        30.04R WCI  17
$$
MNZ071>073-080-081-089-090-097-098-251900-
   Southwest Minnesota

CITY           SKY/WX    TMP DP  RH WIND       PRES   REMARKS
MONTEVIDEO     CLOUDY    30  27  86 E3        30.04R
GRANITE FALLS  CLOUDY    30  26  84 CALM      30.04R
CANBY          CLOUDY    28  25  91 CALM      30.05R
MARSHALL       CLOUDY    28  25  86 N10       30.04R WCI  19
REDWOOD FALLS  PTSUNNY   30  22  72 N7        30.02S WCI  23
OLIVIA         CLOUDY    28  25  86 NE8       30.02S WCI  20
PIPESTONE      CLOUDY    30  28  93 N6        29.98R FOG     WCI  24
WINDOM         PTSUNNY   28  25  86 N8        29.99S WCI  20
WORTHINGTON    CLOUDY    28  25  86 N7        29.99S WCI  21
JACKSON        CLOUDY    30  27  86 VRB8      29.98R WCI  23
TRACY          CLOUDY    30  27  89 NE7       30.01S WCI  23
SLAYTON        CLOUDY    30  28  92 CALM      30.00R
$$
MNZ065>067-074>077-082>085-091>093-251900-
   South Central Minnesota

CITY           SKY/WX    TMP DP  RH WIND       PRES   REMARKS
MANKATO        CLOUDY    25  18  74 NE13      29.99F WCI  13
NEW ULM        SUNNY     25  19  80 NE9       30.02R WCI  15
ST JAMES       CLOUDY    27  25  93 N9        30.02S WCI  17
FAIRMONT       CLOUDY    28  23  80 NE12      29.98S WCI  18
GLENCOE        MOSUNNY   24  17  74 NE8       30.02R WCI  15
FARIBAULT      CLOUDY    21  16  79 N10       30.01F WCI  10
OWATONNA       CLOUDY    23  18  80 N9        29.99F WCI  13
WASECA         CLOUDY    25  21  86 NE12      30.01S WCI  14
ALBERT LEA     CLOUDY    27  25  93 N10       29.97R WCI  17
$$
MNZ078>079-086>088-094>096-251900-
   Southeast Minnesota

CITY           SKY/WX    TMP DP  RH WIND       PRES   REMARKS
ROCHESTER      CLOUDY    26  19  74 N14       29.97R WCI  14
6HR MIN TEMP:  26; 6HR MAX TEMP:  31;

RED WING       CLOUDY    25  12  58 NE7       30.02S WCI  17
STANTON        CLOUDY    23  16  74 N9        30.00F WCI  13
DODGE CENTER   CLOUDY    25  21  86 N9        29.97R WCI  15
WINONA         CLOUDY    30  21  69 NE5       30.01S WCI  25
AUSTIN         CLOUDY    27  23  86 N10       29.96R WCI  17
PRESTON        CLOUDY    26  22  84 NE10      29.96R WCI  16
$$
ABBREVIATIONS USED IN REMARKS
   TC - TEMPERATURES IN CELSIUS
  WCI - WIND CHILL INDEX
   HX - HEAT INDEX
  VSB - VISIBILITY
$$


USA.gov is the U.S. government's official web portal to all federal, state and local government web resources and services.